パンスターズ彗星

365P/PanSTARRS (2023)

English version
Home page
Updated on April 16, 2023

---------------------------------------------------------------------

・ プロフィール

・ 軌道要素

Epoch 2023 Oct. 23.0 TT = JDT 2460240.5
T 2023 Oct.  9.38526 TT                                 MPCW
q   1.3213653            (2000.0)            P               Q
n   0.17577923     Peri.   67.77508     -0.88580990     -0.43154215
a   3.1561503      Node    86.30590     +0.33726748     -0.85124913
e   0.5813364      Incl.    9.84470     +0.31873416     -0.29857378
P   5.61
From 388 observations 2011 Nov. 24-2018 June 2, mean residual 0".4.

・ 光度変化

        m1 = 17.0 + 5 logΔ + 10.0 log r

---------------------------------------------------------------------

軌道要素はM.P.E.C. 2018-S50に掲載されたものです。
光度グラフはComet for Windowsで作成したものです。

---------------------------------------------------------------------

Copyright(C) Seiichi Yoshida (comet@aerith.net). All rights reserved.